[[{"header":{"parameterUnit":"m.s-1","parameterCategory":1,"la1":30.2991,"la2":30.254,"lo1":-89.0895,"lo2":-89.0444,"dy":0.0017,"dx":0.0017,"nx":28,"ny":28,"refTime":"2023-09-24T21:00:00:Z","depth":0,"parameterNumber":2,"parameterNumberName":"U-component_of_WINDS"},"data":[0,0,0,0,0,0,0,0,0,0,0,0,0,0,0,0,0,0,0,0,0,0,0,0,0,0,0,0,0,0,0,0,0,0,0,0,0,0,0,0,0,0,0,0,0,0,0,0,0,0,0,0,0,0,0,0,0,0,-1.4279,-1.4278,0,-1.4197,-1.4196,-1.4195,-1.4129,-1.4128,-1.4128,-1.4127,-1.4044,-1.4043,-1.4041,0,0,0,0,0,0,0,0,0,0,0,0,0,-1.4382,-1.438,-1.4279,-1.4278,-1.4277,-1.4197,-1.4196,-1.4195,-1.4129,-1.4128,-1.4128,-1.4127,-1.4045,-1.4043,-1.4041,0,0,0,0,0,0,0,0,0,0,0,0,0,-1.4323,-1.438,-1.4279,-1.4235,-1.423,-1.4198,-1.4196,-1.4195,-1.4129,-1.4128,-1.4127,-1.4126,-1.4045,-1.4043,-1.4041,-1.4047,0,0,-1.4034,-1.4033,0,0,0,0,0,0,0,0,-1.4326,-1.4319,-1.4242,-1.4238,-1.4232,-1.4172,-1.4202,-1.4145,-1.413,-1.4168,-1.4127,-1.4126,-1.4088,-1.4082,-1.4069,-1.4043,-1.4039,-1.4033,-1.4032,-1.4031,-1.403,0,0,0,0,0,0,0,-1.433,-1.4322,-1.4247,-1.4241,-1.4235,-1.422,-1.421,-1.4191,-1.4134,-1.4164,-1.4159,-1.415,-1.4085,-1.4071,-1.4066,-1.4038,-1.4033,-1.4031,-1.403,-1.4029,-1.4016,-1.4017,0,0,0,0,0,0,-1.4341,-1.4326,-1.4249,-1.4244,-1.4278,-1.4219,-1.4208,-1.4193,-1.4134,-1.4125,-1.4151,-1.4148,-1.4076,-1.4069,-1.4063,-1.4068,-1.4031,-1.4029,-1.4027,-1.4015,-1.4016,-1.4018,0,0,0,0,0,0,-1.4343,-1.4335,-1.4253,-1.4284,-1.4272,-1.4218,-1.4201,-1.4192,-1.4178,-1.4125,-1.4115,-1.4148,-1.4075,-1.4067,-1.4052,-1.4065,-1.4028,-1.4026,-1.4014,-1.4015,-1.4017,-1.4078,0,0,0,0,0,0,-1.4347,-1.4336,-1.4337,-1.4284,-1.4271,-1.4242,-1.4202,-1.4191,-1.4174,-1.4168,-1.4118,-1.4109,-1.4073,-1.4056,-1.405,-1.4061,-1.4024,-1.4012,-1.4015,-1.4016,-1.4074,-1.4081,-1.4087,0,0,0,0,0,-1.435,-1.4357,-1.4337,-1.4328,-1.427,-1.4243,-1.4235,-1.4193,-1.4175,-1.4176,-1.4143,-1.4111,-1.4064,-1.4055,-1.4047,-1.4058,-1.4011,-1.4014,-1.4016,-1.4071,-1.408,-1.4087,0,0,0,0,0,0,-1.4411,-1.4349,-1.4326,-1.4315,-1.4285,-1.4232,-1.4231,-1.4203,-1.4177,-1.4173,-1.4122,-1.4112,-1.4104,-1.4079,-1.407,-1.4062,-1.4034,-1.4035,-1.4078,-1.4086,-1.4092,-1.4099,-1.4022,0,0,0,0,0,-1.4424,-1.4406,-1.4352,-1.4348,-1.4334,-1.4286,-1.4272,-1.4243,-1.4209,-1.4196,-1.4161,-1.413,-1.4109,-1.4096,-1.4073,-1.407,-1.406,-1.4074,-1.4081,-1.4086,-1.4088,-1.4088,-1.4094,-1.4025,-1.4025,-1.4025,0,0,-1.4449,-1.4412,-1.4404,-1.4359,-1.4332,-1.4316,-1.4275,-1.4259,-1.4247,-1.4193,-1.4178,-1.4152,-1.4115,-1.4107,-1.4102,-1.4086,-1.4105,-1.4089,-1.4094,-1.4093,-1.4091,-1.4098,-1.4104,-1.4027,-1.4027,-1.4027,0,0,-1.4486,-1.4456,-1.445,-1.4425,-1.4385,-1.4353,-1.4352,-1.4303,-1.4284,-1.4268,-1.4228,-1.4214,-1.4177,-1.4153,-1.4136,-1.4168,-1.4139,-1.4162,-1.4196,-1.4196,-1.4202,-1.4207,-1.422,-1.4226,-1.4164,-1.4164,-1.4164,0,-1.4522,-1.4496,-1.4451,-1.4438,-1.4421,-1.4372,-1.4368,-1.4345,-1.43,-1.429,-1.4273,-1.4228,-1.4199,-1.4187,-1.4195,-1.4182,-1.4181,-1.4168,-1.4205,-1.4209,-1.4212,-1.4225,-1.423,-1.4168,-1.4167,-1.4167,-1.4167,0,-1.4544,-1.4526,-1.4527,-1.4485,-1.4468,-1.4459,-1.4415,-1.4403,-1.4376,-1.4347,-1.4332,-1.4297,-1.4267,-1.4262,-1.4234,-1.4246,-1.4238,-1.4214,-1.4185,-1.4223,-1.4234,-1.4239,-1.4172,-1.4171,-1.417,-1.4169,0,0,-1.4616,-1.4552,-1.4553,-1.4535,-1.4488,-1.4475,-1.4465,-1.4436,-1.4428,-1.4399,-1.4391,-1.4363,-1.4341,-1.4322,-1.4292,-1.4292,-1.4324,-1.4268,-1.4266,-1.4282,-1.4338,-1.4358,-1.4364,-1.4304,-1.4305,-1.4305,-1.4342,0,-1.4648,-1.4627,-1.4588,-1.458,-1.4565,-1.452,-1.4512,-1.4484,-1.4457,-1.4441,-1.4412,-1.4394,-1.4364,-1.4353,-1.4351,-1.432,-1.4335,-1.4317,-1.4298,-1.4298,-1.431,-1.4369,-1.439,-1.4426,-1.4346,-1.4346,-1.4347,0,-1.4681,-1.4657,-1.4648,-1.4605,-1.4597,-1.4591,-1.4563,-1.4548,-1.4516,-1.4497,-1.4477,-1.4445,-1.4434,-1.4407,-1.4394,-1.4383,-1.4373,-1.4357,-1.4357,-1.4355,-1.4326,-1.4371,-1.4436,-1.4442,-1.4353,-1.4352,-1.4352,0,-1.4738,-1.4702,-1.4693,-1.4679,-1.4628,-1.4625,-1.4604,-1.4571,-1.4557,-1.4533,-1.4524,-1.45,-1.4486,-1.4469,-1.4432,-1.4415,-1.4423,-1.4392,-1.4409,-1.441,-1.4413,-1.4414,-1.448,-1.4404,-1.4404,-1.4404,-1.4404,0,-1.4778,-1.4776,-1.4718,-1.4713,-1.4709,-1.4665,-1.4663,-1.4637,-1.4609,-1.4599,-1.4558,-1.455,-1.4501,-1.4488,-1.4459,-1.4454,-1.4447,-1.4433,-1.4426,-1.4438,-1.444,-1.4431,-1.4429,-1.4406,-1.4405,-1.4405,-1.4405,0,-1.4841,-1.4802,-1.479,-1.4744,-1.4732,-1.4732,-1.4693,-1.4687,-1.4658,-1.4647,-1.4642,-1.4597,-1.458,-1.4541,-1.4513,-1.4494,-1.4497,-1.4482,-1.4508,-1.4504,-1.4523,-1.4523,-1.4587,-1.4595,-1.4513,-1.4514,-1.4515,0,-1.487,-1.4867,-1.4821,-1.4812,-1.4793,-1.4777,-1.4764,-1.4721,-1.4709,-1.4674,-1.4673,-1.4653,-1.4634,-1.4609,-1.4575,-1.4555,-1.454,-1.4565,-1.4537,-1.455,-1.4544,-1.4545,-1.4546,-1.4571,-1.4572,-1.4573,-1.4574,0,-1.4926,-1.4908,-1.489,-1.4866,-1.4851,-1.483,-1.4806,-1.4801,-1.4753,-1.4742,-1.4724,-1.471,-1.4683,-1.4664,-1.4639,-1.4618,-1.4589,-1.4583,-1.4586,-1.4599,-1.4615,-1.4609,-1.4527,-1.4582,-1.4581,-1.458,-1.458,-1.4579,-1.4974,-1.4971,-1.4939,-1.492,-1.4899,-1.4879,-1.4872,-1.4843,-1.4828,-1.4802,-1.4778,-1.4763,-1.4734,-1.4697,-1.4679,-1.4669,-1.4653,-1.4657,-1.4659,-1.4661,-1.4667,-1.4616,-1.4663,-1.4663,-1.4663,-1.4663,-1.4662,0,-1.503,-1.5008,-1.4992,-1.4962,-1.4948,-1.4921,-1.4895,-1.4886,-1.4874,-1.4849,-1.4832,-1.4813,-1.4796,-1.4762,-1.4741,-1.474,-1.4726,-1.4736,-1.4737,-1.4733,-1.468,-1.4681,-1.4748,-1.4748,-1.4748,-1.4748,-1.4748,-1.4748,-1.5058,-1.5051,-1.503,-1.5013,-1.4991,-1.4976,-1.4964,-1.4946,-1.4927,-1.4908,-1.4893,-1.4871,-1.4843,-1.4821,-1.4805,-1.4795,-1.4791,-1.4806,-1.4792,-1.4744,-1.4736,-1.4729,-1.4729,-1.4805,-1.4805,-1.4846,-1.4846,-1.4847]},{"header":{"parameterUnit":"m.s-1","parameterCategory":1,"la1":30.2991,"la2":30.254,"lo1":-89.0895,"lo2":-89.0444,"dy":0.0017,"dx":0.0017,"nx":28,"ny":28,"refTime":"2023-09-24T21:00:00:Z","depth":0,"parameterNumber":3,"parameterNumberName":"V-component_of_WINDS"},"data":[0,0,0,0,0,0,0,0,0,0,0,0,0,0,0,0,0,0,0,0,0,0,0,0,0,0,0,0,0,0,0,0,0,0,0,0,0,0,0,0,0,0,0,0,0,0,0,0,0,0,0,0,0,0,0,0,0,0,1.6764,1.6764,0,1.6789,1.6789,1.679,1.6842,1.6843,1.6844,1.6845,1.6868,1.6867,1.6867,0,0,0,0,0,0,0,0,0,0,0,0,0,1.6758,1.6758,1.6764,1.6764,1.6765,1.6789,1.6789,1.679,1.6841,1.6843,1.6844,1.6845,1.6868,1.6867,1.6867,0,0,0,0,0,0,0,0,0,0,0,0,0,1.6769,1.6758,1.6764,1.6793,1.6796,1.6789,1.6789,1.679,1.6841,1.6843,1.6844,1.6846,1.6868,1.6867,1.6867,1.6832,0,0,1.6865,1.6865,0,0,0,0,0,0,0,0,1.6769,1.6769,1.6789,1.6791,1.6795,1.6814,1.6796,1.6804,1.6841,1.6824,1.6845,1.6846,1.6848,1.685,1.6851,1.6833,1.6834,1.6865,1.6865,1.6865,1.6865,0,0,0,0,0,0,0,1.6768,1.6769,1.6774,1.6789,1.6793,1.6804,1.6808,1.6798,1.6827,1.6826,1.6829,1.6832,1.685,1.6851,1.6852,1.6835,1.6865,1.6865,1.6864,1.6864,1.6788,1.6786,0,0,0,0,0,0,1.6763,1.6768,1.6773,1.6775,1.6785,1.6803,1.6807,1.6806,1.6827,1.6832,1.683,1.6834,1.6851,1.6852,1.6853,1.6811,1.6865,1.6864,1.6864,1.6789,1.6787,1.6786,0,0,0,0,0,0,1.6763,1.6763,1.6772,1.6772,1.6774,1.6802,1.68,1.6806,1.6807,1.6831,1.6836,1.6826,1.6853,1.6853,1.6837,1.6813,1.6864,1.6863,1.6791,1.6789,1.6786,1.673,0,0,0,0,0,0,1.6762,1.6763,1.675,1.6772,1.6774,1.6756,1.6799,1.6805,1.6806,1.6811,1.6828,1.6833,1.6854,1.6837,1.6836,1.6813,1.6863,1.6794,1.679,1.6787,1.6734,1.6725,1.6718,0,0,0,0,0,1.6762,1.6733,1.675,1.675,1.676,1.6755,1.6756,1.6782,1.6804,1.6791,1.6807,1.6832,1.6816,1.6835,1.6834,1.6811,1.6795,1.6791,1.6787,1.6737,1.6727,1.6719,0,0,0,0,0,0,1.6708,1.6737,1.6755,1.6733,1.6741,1.6764,1.6748,1.6771,1.6772,1.6777,1.6808,1.6812,1.679,1.6799,1.682,1.6777,1.681,1.6805,1.6772,1.6762,1.6755,1.6752,1.6863,0,0,0,0,0,1.6694,1.6689,1.6714,1.6692,1.6695,1.6721,1.672,1.6739,1.6748,1.6752,1.6766,1.6774,1.677,1.6767,1.6766,1.6736,1.6739,1.672,1.6712,1.6706,1.6701,1.6683,1.6674,1.6773,1.6773,1.6773,0,0,1.6664,1.6679,1.6674,1.6681,1.669,1.6682,1.6723,1.6714,1.6708,1.675,1.6735,1.6745,1.6756,1.6732,1.6722,1.6739,1.6674,1.6701,1.6695,1.6694,1.6678,1.6669,1.666,1.677,1.6771,1.6771,0,0,1.6605,1.6617,1.6598,1.6606,1.6619,1.6637,1.6632,1.6651,1.666,1.6645,1.6676,1.6669,1.6664,1.6669,1.6671,1.6613,1.6635,1.6612,1.6571,1.6553,1.6545,1.6539,1.6515,1.6507,1.6607,1.6607,1.6607,0,1.6565,1.6556,1.6586,1.6574,1.6576,1.6614,1.6595,1.6601,1.6612,1.6612,1.6631,1.6623,1.6633,1.6609,1.6595,1.6597,1.6591,1.6609,1.6545,1.6538,1.6532,1.651,1.6501,1.6604,1.6604,1.6605,1.6605,0,1.6506,1.6499,1.6483,1.6492,1.6492,1.6477,1.6503,1.6499,1.6518,1.6533,1.6517,1.653,1.6531,1.6527,1.6546,1.6506,1.6515,1.6539,1.6572,1.6519,1.6498,1.6491,1.66,1.6601,1.6602,1.6602,0,0,1.6412,1.6439,1.6432,1.6436,1.6453,1.6448,1.6433,1.6435,1.6429,1.6436,1.6423,1.6417,1.6439,1.6441,1.6461,1.6446,1.6396,1.6471,1.6472,1.6454,1.6349,1.6329,1.6319,1.6412,1.6411,1.6409,1.6347,0,1.6355,1.6332,1.6359,1.633,1.6322,1.6359,1.6346,1.6354,1.6368,1.6362,1.6378,1.6371,1.6402,1.6403,1.639,1.6404,1.6375,1.641,1.6398,1.6397,1.6391,1.6309,1.6288,1.6229,1.634,1.6339,1.6338,0,1.6285,1.6288,1.6258,1.6275,1.6273,1.6261,1.6263,1.6259,1.6268,1.6279,1.6281,1.6305,1.629,1.6324,1.6303,1.6327,1.6324,1.633,1.6328,1.6326,1.6362,1.6302,1.6211,1.6201,1.6326,1.6327,1.6328,0,1.6216,1.6213,1.6194,1.6197,1.6217,1.6208,1.6216,1.6227,1.6225,1.6227,1.6226,1.6226,1.6226,1.6225,1.6247,1.627,1.6223,1.6259,1.6229,1.6228,1.6215,1.6215,1.612,1.6218,1.6218,1.6218,1.6218,0,1.6148,1.6127,1.6163,1.6151,1.6129,1.6159,1.6136,1.6148,1.6157,1.6147,1.618,1.6169,1.6201,1.6194,1.6211,1.619,1.619,1.6197,1.6201,1.6192,1.6191,1.6189,1.6192,1.6216,1.6216,1.6217,1.6217,0,1.6066,1.609,1.6071,1.6092,1.6097,1.6079,1.6096,1.6085,1.6101,1.6088,1.6087,1.6111,1.6104,1.6127,1.6124,1.6135,1.6103,1.6116,1.61,1.6102,1.607,1.6071,1.5967,1.5954,1.6063,1.6062,1.6061,0,1.6019,1.6004,1.6023,1.6019,1.6025,1.6019,1.6017,1.6046,1.6043,1.6052,1.6039,1.6035,1.6033,1.6019,1.6036,1.6033,1.6044,1.6008,1.6044,1.6034,1.604,1.6039,1.6037,1.5999,1.5998,1.5997,1.5996,0,1.5933,1.5945,1.5942,1.5943,1.594,1.5942,1.5946,1.5941,1.5972,1.5967,1.596,1.5958,1.5955,1.5949,1.5949,1.5956,1.598,1.5985,1.5977,1.5967,1.5957,1.5959,1.6076,1.5987,1.5988,1.5988,1.5989,1.5989,1.5865,1.5853,1.5864,1.5859,1.5865,1.5868,1.5858,1.5873,1.5868,1.5867,1.5885,1.5874,1.5883,1.5886,1.589,1.5881,1.5898,1.5887,1.5884,1.588,1.5873,1.5961,1.5882,1.5882,1.5882,1.5883,1.5883,0,1.5778,1.5787,1.5783,1.5787,1.5782,1.5808,1.5813,1.5807,1.5797,1.5804,1.5801,1.5792,1.5786,1.5803,1.5799,1.5788,1.5799,1.5786,1.5786,1.5786,1.586,1.5866,1.5777,1.5777,1.5777,1.5777,1.5777,1.5777,1.5732,1.5711,1.5725,1.5707,1.5716,1.5706,1.5707,1.5709,1.5714,1.5702,1.5698,1.5709,1.5719,1.5716,1.5712,1.5717,1.5712,1.5695,1.5703,1.5771,1.5781,1.5791,1.5796,1.5695,1.5694,1.5629,1.5629,1.5628]}]]